Volver al catálogo

STARLINK-37418

ActivoComunicacionesSSO
NORAD 68775·PAYLOAD·🇺🇸 United States

Lanzado Apr 19, 2026 desde Vandenberg Space Force Base

Loading…

Próximos Pases (próximas 24 horas)

TLE

ActualizadoSource: CelesTrak SupGP

Época: Sep 14, 2026, 23:35 UTC

1 68775C 26086K   26257.98312500  .00062228  00000+0  19321-2 0  2579
2 68775  97.2842 293.4782 0001418  88.7919  93.1074 15.33401618    15

Sigue STARLINK-37418 en tiempo real con AllMySat

Download on the App Store